TimeCST,TemperatureF,Dew PointF,Humidity,Sea Level PressureIn,VisibilityMPH,Wind Direction,Wind SpeedMPH,Gust SpeedMPH,PrecipitationIn,Events,Conditions,WindDirDegrees,DateUTC
12:06 AM,33.1,32.0,96,29.39,0.5,Calm,Calm,-,N/A,Fog,Fog,0,2013-11-17 06:06:00
12:15 AM,30.0,30.0,100,29.39,0.8,Calm,Calm,-,N/A,,Overcast,0,2013-11-17 06:15:00
12:22 AM,30.9,30.0,96,29.39,0.5,Calm,Calm,-,N/A,Fog,Light Freezing Fog,0,2013-11-17 06:22:00
12:36 AM,30.9,30.9,100,29.40,0.5,Calm,Calm,-,N/A,Fog,Light Freezing Fog,0,2013-11-17 06:36:00
12:52 AM,30.9,30.9,100,29.44,0.5,Calm,Calm,-,N/A,Fog,Light Freezing Fog,0,2013-11-17 06:52:00
1:09 AM,32.0,30.9,96,29.40,1.0,Calm,Calm,-,N/A,,Overcast,0,2013-11-17 07:09:00
1:22 AM,32.0,32.0,100,29.40,3.0,Calm,Calm,-,N/A,,Overcast,0,2013-11-17 07:22:00
1:52 AM,33.1,32.0,96,29.44,4.0,Calm,Calm,-,N/A,,Overcast,0,2013-11-17 07:52:00
2:52 AM,33.1,33.1,100,29.46,3.0,Calm,Calm,-,N/A,,Overcast,0,2013-11-17 08:52:00
3:14 AM,33.1,32.0,96,29.42,4.0,Calm,Calm,-,N/A,,Overcast,0,2013-11-17 09:14:00
3:37 AM,33.1,32.0,96,29.42,2.5,Calm,Calm,-,N/A,,Overcast,0,2013-11-17 09:37:00
3:49 AM,32.0,32.0,100,29.43,3.0,Calm,Calm,-,N/A,,Overcast,0,2013-11-17 09:49:00
3:52 AM,32.0,32.0,100,29.47,3.0,Calm,Calm,-,N/A,,Overcast,0,2013-11-17 09:52:00
4:16 AM,32.0,32.0,100,29.43,2.5,Calm,Calm,-,N/A,,Overcast,0,2013-11-17 10:16:00
4:31 AM,33.1,32.0,96,29.44,3.0,Calm,Calm,-,N/A,,Overcast,0,2013-11-17 10:31:00
4:52 AM,33.1,32.0,96,29.49,3.0,Calm,Calm,-,N/A,,Overcast,0,2013-11-17 10:52:00
5:52 AM,35.1,33.1,92,29.51,5.0,WNW,3.5,-,0.01,Rain,Light Rain,290,2013-11-17 11:52:00
6:00 AM,35.1,34.0,96,29.46,5.0,Calm,Calm,-,0.00,,Overcast,0,2013-11-17 12:00:00
6:25 AM,34.0,33.1,96,29.48,6.0,Calm,Calm,-,0.00,Rain,Light Rain,0,2013-11-17 12:25:00
6:52 AM,35.1,34.0,96,29.53,5.0,Calm,Calm,-,0.00,,Overcast,0,2013-11-17 12:52:00
7:52 AM,35.1,33.1,92,29.57,7.0,North,8.1,-,N/A,,Overcast,360,2013-11-17 13:52:00
8:24 AM,34.0,33.1,96,29.55,5.0,North,6.9,-,N/A,,Overcast,360,2013-11-17 14:24:00
8:52 AM,33.1,32.0,96,29.61,10.0,NNE,8.1,-,N/A,,Overcast,20,2013-11-17 14:52:00
9:52 AM,33.1,30.0,89,29.66,10.0,North,9.2,-,N/A,,Overcast,360,2013-11-17 15:52:00
10:52 AM,33.1,30.0,89,29.70,10.0,NNW,6.9,-,N/A,,Overcast,340,2013-11-17 16:52:00
11:52 AM,32.0,28.0,85,29.74,10.0,NNW,5.8,-,N/A,,Overcast,330,2013-11-17 17:52:00
12:43 PM,33.1,28.9,85,29.71,4.0,NNW,9.2,-,0.00,Snow,Light Snow,330,2013-11-17 18:43:00
12:52 PM,33.1,28.9,85,29.77,7.0,NW,8.1,-,0.00,,Overcast,320,2013-11-17 18:52:00
1:18 PM,33.1,28.9,85,29.72,7.0,NNW,10.4,-,N/A,,Overcast,340,2013-11-17 19:18:00
1:52 PM,33.1,28.0,82,29.80,10.0,NW,6.9,-,N/A,,Overcast,310,2013-11-17 19:52:00
2:52 PM,32.0,28.0,85,29.83,10.0,NW,10.4,-,N/A,,Overcast,320,2013-11-17 20:52:00
3:52 PM,32.0,27.0,82,29.87,8.0,NW,11.5,20.7,N/A,,Overcast,320,2013-11-17 21:52:00
4:22 PM,30.9,26.1,82,29.83,10.0,NW,8.1,-,N/A,,Overcast,320,2013-11-17 22:22:00
4:45 PM,30.9,26.1,82,29.85,10.0,WNW,11.5,-,N/A,,Overcast,300,2013-11-17 22:45:00
4:52 PM,30.9,26.1,82,29.91,9.0,WNW,10.4,19.6,N/A,,Overcast,300,2013-11-17 22:52:00
5:30 PM,30.9,26.1,82,29.86,10.0,NW,11.5,-,N/A,,Overcast,320,2013-11-17 23:30:00
5:52 PM,30.9,26.1,82,29.94,10.0,NW,11.5,-,N/A,,Overcast,310,2013-11-17 23:52:00
6:52 PM,30.9,25.0,79,29.96,10.0,NW,9.2,-,N/A,,Overcast,320,2013-11-18 00:52:00
7:52 PM,30.9,25.0,79,29.99,10.0,NW,9.2,-,N/A,,Overcast,310,2013-11-18 01:52:00
8:52 PM,30.9,24.1,76,30.00,10.0,NW,9.2,-,N/A,,Overcast,310,2013-11-18 02:52:00
9:52 PM,30.9,24.1,76,30.02,10.0,WNW,13.8,17.3,N/A,,Overcast,300,2013-11-18 03:52:00
10:52 PM,30.9,23.0,72,30.01,10.0,WNW,11.5,-,N/A,,Overcast,300,2013-11-18 04:52:00
11:52 PM,30.0,24.1,79,30.04,10.0,NNW,6.9,-,N/A,,Overcast,330,2013-11-18 05:52:00